Погода в Мо

Франция     48°57′25″N   2°52′35″E
темп.,
°C
ветер,
м/с
пор.,
м/с
влажн.,
%
обл.,
%
осадки,
мм/ч
давл.,
гПа
погр.,
м
17 мая, вт
вт1723:00+17юв2280100 0.0 102016
02:00+15ююв358799 0.0 102084
05:00+14ююв338857 0.0 102044
08:00+17ю238397 0.0 1020115
11:00+22ююв226987 0.0 1020551
14:00+24юв22585 0.1 10191438
17:00+25ююв335412 0.0 10181685
20:00+23вюв35750 0.0 1017103
18 мая, ср
ср1823:00+18вюв3679100 0.0 101989
02:00+16ююз229597 1.8 102040
05:00+15ссз11955 0.0 102011
08:00+17ссз35935 0.0 1022195
11:00+21ссв337718 0.0 1022619
14:00+24св226584 0.0 1021984
17:00+25всв346198 0.0 10191341
20:00+23в3481100 0.3 101898
19 мая, чт
чт1923:00+19вюв3390100 0.1 101846
02:00+18ююв31093100 1.1 1017185
05:00+16ю3496100 1.9 101778
08:00+17ююв3692100 2.4 1018179
11:00+20ююз4686100 0.0 1019359
14:00+25зюз466551 0.0 10191435
17:00+24зсз5564100 0.9 10191302
20:00+22ссз367655 0.9 1020227
20 мая, пт
пт2023:00+15ссв369280 0.2 1021119
02:00+14ссв3393100 0.9 102158
05:00+14всв2295100 0.3 101943
08:00+16ю2696100 3.2 1019236
11:00+19ю5993100 9.8 1018447
14:00+20з5790100 10.7 1018726
17:00+18сз588986 0.1 1020552
20:00+18сз2584100 0.2 1021489
21 мая, сб
сб2123:00+14ссз229268 0.0 102212
02:00+12зсз1192100 0.0 102210
05:00+11зсз1190100 0.0 102210
08:00+14зсз1181100 0.0 102287
11:00+18сз126698 0.0 1022598
14:00+21зсз125935 0.0 10211158
17:00+22зсз0255100 0.0 10191402
20:00+20всв2271100 0.0 101825